TimeCST,TemperatureF,Dew PointF,Humidity,Sea Level PressureIn,VisibilityMPH,Wind Direction,Wind SpeedMPH,Gust SpeedMPH,PrecipitationIn,Events,Conditions,WindDirDegrees,DateUTC
12:15 AM,37.4,35.6,93,30.07,10.0,ESE,4.6,-,N/A,,Clear,120,2012-12-01 06:15:00
12:35 AM,35.6,33.8,93,30.07,7.0,Calm,Calm,-,N/A,,Clear,0,2012-12-01 06:35:00
12:55 AM,33.8,33.8,100,30.07,5.0,Calm,Calm,-,N/A,,Clear,0,2012-12-01 06:55:00
1:15 AM,35.6,33.8,93,30.06,5.0,Calm,Calm,-,N/A,,Clear,0,2012-12-01 07:15:00
1:35 AM,35.6,33.8,93,30.07,5.0,ENE,3.5,-,N/A,,Clear,60,2012-12-01 07:35:00
2:15 AM,35.6,33.8,93,30.07,7.0,Calm,Calm,-,N/A,,Clear,0,2012-12-01 08:15:00
2:55 AM,35.6,33.8,93,30.06,7.0,ESE,6.9,-,N/A,,Clear,120,2012-12-01 08:55:00
3:15 AM,35.6,33.8,93,30.05,10.0,ESE,6.9,-,N/A,,Clear,110,2012-12-01 09:15:00
3:35 AM,35.6,33.8,93,30.05,7.0,Calm,Calm,-,N/A,,Clear,0,2012-12-01 09:35:00
3:55 AM,37.4,35.6,93,30.05,10.0,SE,5.8,-,N/A,,Clear,130,2012-12-01 09:55:00
4:15 AM,39.2,35.6,87,30.04,10.0,SSE,6.9,-,N/A,,Clear,150,2012-12-01 10:15:00
4:35 AM,39.2,37.4,93,30.03,10.0,SSE,6.9,-,N/A,,Clear,150,2012-12-01 10:35:00
4:55 AM,41.0,37.4,87,30.03,5.0,SSE,8.1,-,N/A,,Clear,160,2012-12-01 10:55:00
5:15 AM,41.0,37.4,87,30.02,7.0,South,9.2,-,N/A,,Clear,170,2012-12-01 11:15:00
5:35 AM,39.2,37.4,93,30.02,10.0,South,8.1,-,N/A,,Clear,170,2012-12-01 11:35:00
5:55 AM,42.8,39.2,87,30.01,10.0,South,10.4,-,N/A,,Clear,180,2012-12-01 11:55:00
6:15 AM,42.8,39.2,87,30.01,10.0,South,9.2,-,N/A,,Clear,170,2012-12-01 12:15:00
6:35 AM,42.8,41.0,93,30.01,7.0,South,9.2,-,N/A,,Clear,170,2012-12-01 12:35:00
6:55 AM,42.8,41.0,93,30.01,7.0,South,8.1,-,N/A,,Scattered Clouds,170,2012-12-01 12:55:00
7:15 AM,42.8,41.0,93,30.01,7.0,South,9.2,-,N/A,,Overcast,170,2012-12-01 13:15:00
7:35 AM,42.8,42.8,100,30.01,7.0,South,8.1,-,N/A,,Overcast,170,2012-12-01 13:35:00
7:55 AM,44.6,42.8,93,30.00,5.0,South,9.2,-,N/A,,Scattered Clouds,170,2012-12-01 13:55:00
8:15 AM,44.6,44.6,100,30.00,5.0,South,9.2,-,N/A,,Clear,170,2012-12-01 14:15:00
8:35 AM,44.6,44.6,100,30.00,5.0,South,8.1,-,N/A,,Scattered Clouds,170,2012-12-01 14:35:00
8:55 AM,46.4,44.6,93,29.99,5.0,South,10.4,-,N/A,,Mostly Cloudy,170,2012-12-01 14:55:00
9:15 AM,46.4,44.6,93,29.99,7.0,South,8.1,-,N/A,,Overcast,170,2012-12-01 15:15:00
9:35 AM,48.2,46.4,93,29.99,7.0,SSE,8.1,-,N/A,,Overcast,160,2012-12-01 15:35:00
9:55 AM,48.2,46.4,93,29.99,7.0,South,8.1,-,N/A,,Overcast,170,2012-12-01 15:55:00
10:15 AM,50.0,48.2,94,29.99,7.0,South,6.9,-,N/A,,Overcast,170,2012-12-01 16:15:00
10:35 AM,51.8,48.2,88,29.98,7.0,South,9.2,-,N/A,,Overcast,170,2012-12-01 16:35:00
10:55 AM,53.6,50.0,88,29.97,7.0,South,8.1,-,N/A,,Overcast,170,2012-12-01 16:55:00
11:15 AM,53.6,50.0,88,29.97,7.0,South,6.9,-,N/A,,Overcast,180,2012-12-01 17:15:00
11:35 AM,53.6,51.8,94,29.95,7.0,South,8.1,-,N/A,,Overcast,170,2012-12-01 17:35:00
11:55 AM,55.4,51.8,88,29.94,7.0,South,6.9,-,N/A,,Overcast,180,2012-12-01 17:55:00
12:15 PM,55.4,51.8,88,29.94,7.0,South,6.9,-,N/A,,Overcast,190,2012-12-01 18:15:00
12:35 PM,55.4,51.8,88,29.93,7.0,South,6.9,-,N/A,,Overcast,190,2012-12-01 18:35:00
12:55 PM,55.4,51.8,88,29.92,7.0,South,9.2,-,N/A,,Overcast,190,2012-12-01 18:55:00
1:15 PM,55.4,53.6,94,29.91,7.0,South,8.1,-,N/A,,Overcast,190,2012-12-01 19:15:00
1:35 PM,57.2,53.6,88,29.91,7.0,South,4.6,-,N/A,,Overcast,190,2012-12-01 19:35:00
1:55 PM,57.2,53.6,88,29.90,7.0,South,5.8,-,N/A,,Overcast,190,2012-12-01 19:55:00
2:15 PM,57.2,53.6,88,29.90,10.0,South,6.9,-,N/A,,Overcast,180,2012-12-01 20:15:00
2:35 PM,59.0,53.6,82,29.89,10.0,South,8.1,-,N/A,,Overcast,190,2012-12-01 20:35:00
2:55 PM,57.2,53.6,88,29.89,10.0,South,5.8,-,N/A,,Overcast,180,2012-12-01 20:55:00
3:15 PM,59.0,53.6,82,29.89,10.0,South,9.2,-,N/A,,Overcast,180,2012-12-01 21:15:00
3:35 PM,59.0,53.6,82,29.89,10.0,South,6.9,-,N/A,,Overcast,190,2012-12-01 21:35:00
3:55 PM,59.0,53.6,82,29.89,10.0,South,5.8,-,N/A,,Overcast,180,2012-12-01 21:55:00
4:15 PM,59.0,53.6,82,29.89,10.0,South,6.9,-,N/A,,Overcast,170,2012-12-01 22:15:00
4:35 PM,59.0,53.6,82,29.89,10.0,South,6.9,-,N/A,,Overcast,170,2012-12-01 22:35:00
4:55 PM,59.0,53.6,82,29.88,10.0,South,6.9,-,N/A,,Overcast,170,2012-12-01 22:55:00
5:15 PM,59.0,53.6,82,29.87,10.0,South,6.9,-,N/A,,Overcast,170,2012-12-01 23:15:00
5:35 PM,59.0,53.6,82,29.87,10.0,South,8.1,-,N/A,,Overcast,170,2012-12-01 23:35:00
5:55 PM,57.2,53.6,88,29.87,10.0,South,9.2,-,N/A,,Overcast,170,2012-12-01 23:55:00
6:15 PM,57.2,53.6,88,29.87,10.0,South,8.1,16.1,N/A,,Mostly Cloudy,170,2012-12-02 00:15:00
6:35 PM,57.2,53.6,88,29.87,10.0,South,9.2,-,N/A,,Scattered Clouds,170,2012-12-02 00:35:00
6:55 PM,57.2,53.6,88,29.87,10.0,South,8.1,-,N/A,,Mostly Cloudy,180,2012-12-02 00:55:00
7:15 PM,59.0,53.6,82,29.87,10.0,South,8.1,-,N/A,,Overcast,180,2012-12-02 01:15:00
7:35 PM,59.0,53.6,82,29.87,10.0,South,8.1,-,N/A,,Overcast,190,2012-12-02 01:35:00
7:55 PM,60.8,53.6,77,29.87,10.0,South,9.2,-,N/A,,Overcast,190,2012-12-02 01:55:00
8:15 PM,60.8,53.6,77,29.87,10.0,South,9.2,-,N/A,,Overcast,190,2012-12-02 02:15:00
8:35 PM,60.8,53.6,77,29.87,10.0,South,5.8,-,N/A,,Overcast,180,2012-12-02 02:35:00
8:55 PM,60.8,53.6,77,29.86,10.0,South,5.8,-,N/A,,Overcast,170,2012-12-02 02:55:00
9:15 PM,60.8,53.6,77,29.86,10.0,South,6.9,-,N/A,,Overcast,170,2012-12-02 03:15:00
9:35 PM,60.8,53.6,77,29.86,10.0,South,5.8,-,N/A,,Overcast,170,2012-12-02 03:35:00
9:55 PM,60.8,53.6,77,29.86,10.0,South,5.8,-,N/A,,Overcast,190,2012-12-02 03:55:00
10:15 PM,60.8,55.4,82,29.86,10.0,South,10.4,-,N/A,,Overcast,190,2012-12-02 04:15:00
10:35 PM,60.8,55.4,82,29.86,10.0,South,9.2,-,N/A,,Overcast,190,2012-12-02 04:35:00
10:55 PM,60.8,55.4,82,29.86,10.0,SSW,8.1,-,N/A,,Overcast,200,2012-12-02 04:55:00
11:15 PM,60.8,55.4,82,29.87,10.0,SSW,8.1,-,N/A,,Overcast,210,2012-12-02 05:15:00
11:35 PM,60.8,55.4,82,29.87,10.0,SSW,6.9,-,N/A,,Overcast,200,2012-12-02 05:35:00
11:55 PM,60.8,55.4,82,29.87,10.0,South,9.2,-,N/A,,Overcast,190,2012-12-02 05:55:00